Weather reports worldwide

Advertisment
Tampico/Tamps, Mexico (76548): temperature & dewpoint: 15.02.2019 19:00:00 - 21.02.2019 19:00:00 (CST)Tampico/Tamps, Mexico (76548): wind speed: 15.02.2019 19:00:00 - 21.02.2019 19:00:00 (CST)Tampico/Tamps, Mexico (76548): wind direction: 15.02.2019 19:00:00 - 21.02.2019 19:00:00 (CST)Tampico/Tamps, Mexico (76548): reduced air pressure: 15.02.2019 19:00:00 - 21.02.2019 19:00:00 (CST)Tampico/Tamps, Mexico (76548): visibility: 15.02.2019 19:00:00 - 21.02.2019 19:00:00 (CST)
Date & Time tt [°C] td [°C] ff [km/h] ff [kn] dd ppp [hPa] vv [km]
21.02.2019 19:00:00 - - - - - - -
21.02.2019 18:00:00 23,6 18,6 18 10 ESE 1007,8 20
21.02.2019 17:00:00 - - - - - - -
21.02.2019 16:00:00 - - - - - - -
21.02.2019 15:00:00 27,4 19,6 7 4 SW 1009,2 22
21.02.2019 14:00:00 - - - - - - -
21.02.2019 13:00:00 - - - - - - -
21.02.2019 12:00:00 25,2 19,4 7 4 SW 1013,1 22
21.02.2019 11:00:00 - - - - - - -
21.02.2019 10:00:00 - - - - - - -
21.02.2019 09:00:00 18,2 13,7 4 2 SSE 1014,2 20
21.02.2019 08:00:00 - - - - - - -
21.02.2019 07:00:00 - - - - - - -
21.02.2019 06:00:00 17,2 13,3 4 2 SE 1013,0 10
21.02.2019 05:00:00 - - - - - - -
21.02.2019 04:00:00 - - - - - - -
21.02.2019 03:00:00 17,4 12,0 4 2 E 1013,5 10
21.02.2019 02:00:00 - - - - - - -
21.02.2019 01:00:00 - - - - - - -
21.02.2019 00:00:00 17,8 13,6 22 12 NNE 1015,4 10
20.02.2019 23:00:00 - - - - - - -
20.02.2019 22:00:00 - - - - - - -
20.02.2019 21:00:00 17,8 13,6 29 16 NNE 1014,8 10
20.02.2019 20:00:00 - - - - - - -
20.02.2019 19:00:00 - - - - - - -
20.02.2019 18:00:00 18,4 12,8 22 12 NNE 1012,4 20
20.02.2019 17:00:00 - - - - - - -
20.02.2019 16:00:00 - - - - - - -
20.02.2019 15:00:00 19,6 13,8 18 10 ENE 1012,7 20
20.02.2019 14:00:00 - - - - - - -
20.02.2019 13:00:00 - - - - - - -
20.02.2019 12:00:00 18,4 15,6 29 16 NNE 1015,0 20
20.02.2019 11:00:00 - - - - - - -
20.02.2019 10:00:00 - - - - - - -
20.02.2019 09:00:00 18,8 - 22 12 NNE 1013,3 18
20.02.2019 08:00:00 - - - - - - -
20.02.2019 07:00:00 - - - - - - -
20.02.2019 06:00:00 21,0 17,7 7 4 ESE 1008,9 10
20.02.2019 05:00:00 - - - - - - -
20.02.2019 04:00:00 - - - - - - -
20.02.2019 03:00:00 22,6 20,3 7 4 SSE 1008,5 10
20.02.2019 02:00:00 - - - - - - -
20.02.2019 01:00:00 - - - - - - -
20.02.2019 00:00:00 22,2 19,6 7 4 ESE 1010,5 10
19.02.2019 23:00:00 - - - - - - -
19.02.2019 22:00:00 - - - - - - -
19.02.2019 21:00:00 22,2 19,6 11 6 ESE 1010,0 10
19.02.2019 20:00:00 - - - - - - -
19.02.2019 19:00:00 - - - - - - -
19.02.2019 18:00:00 24,8 18,6 11 6 SE 1007,7 22
19.02.2019 17:00:00 - - - - - - -
19.02.2019 16:00:00 - - - - - - -
19.02.2019 15:00:00 27,2 17,4 11 6 E 1009,5 22
19.02.2019 14:00:00 - - - - - - -
19.02.2019 13:00:00 - - - - - - -
19.02.2019 12:00:00 25,2 18,8 4 2 NW 1014,6 22
19.02.2019 11:00:00 - - - - - - -
19.02.2019 10:00:00 - - - - - - -
19.02.2019 09:00:00 20,0 14,9 4 2 S 1015,6 22
19.02.2019 08:00:00 - - - - - - -
19.02.2019 07:00:00 - - - - - - -
19.02.2019 06:00:00 18,6 14,1 4 2 NE 1015,1 10
19.02.2019 05:00:00 - - - - - - -
19.02.2019 04:00:00 - - - - - - -
19.02.2019 03:00:00 18,8 14,0 7 4 NE 1016,5 10
19.02.2019 02:00:00 - - - - - - -
19.02.2019 01:00:00 - - - - - - -
19.02.2019 00:00:00 19,0 14,2 7 4 ENE 1017,8 10
18.02.2019 23:00:00 - - - - - - -
18.02.2019 22:00:00 - - - - - - -
18.02.2019 21:00:00 19,6 15,9 11 6 NE 1017,6 10
18.02.2019 20:00:00 - - - - - - -
18.02.2019 19:00:00 - - - - - - -
18.02.2019 18:00:00 21,0 16,0 18 10 N 1014,9 20
18.02.2019 17:00:00 - - - - - - -
18.02.2019 16:00:00 - - - - - - -
18.02.2019 15:00:00 21,4 15,5 22 12 NNE 1014,8 22
18.02.2019 14:00:00 - - - - - - -
18.02.2019 13:00:00 - - - - - - -
18.02.2019 12:00:00 21,2 17,3 11 6 NNE 1016,7 20
18.02.2019 11:00:00 - - - - - - -
18.02.2019 10:00:00 - - - - - - -
18.02.2019 09:00:00 20,2 17,5 11 6 ESE 1015,9 18
18.02.2019 08:00:00 - - - - - - -
18.02.2019 07:00:00 - - - - - - -
18.02.2019 06:00:00 20,8 18,1 11 6 NE 1013,0 10
18.02.2019 05:00:00 - - - - - - -
18.02.2019 04:00:00 - - - - - - -
18.02.2019 03:00:00 - - - - - - -
18.02.2019 02:00:00 - - - - - - -
18.02.2019 01:00:00 - - - - - - -
18.02.2019 00:00:00 21,2 19,4 22 12 NE 1012,1 10
17.02.2019 23:00:00 - - - - - - -
17.02.2019 22:00:00 - - - - - - -
17.02.2019 21:00:00 21,6 18,6 25 14 NE 1010,1 10
17.02.2019 20:00:00 - - - - - - -
17.02.2019 19:00:00 - - - - - - -
17.02.2019 18:00:00 24,0 20,3 18 10 NE 1004,7 18
17.02.2019 17:00:00 - - - - - - -
17.02.2019 16:00:00 - - - - - - -
17.02.2019 15:00:00 27,6 21,7 14 8 NE 1004,8 20
17.02.2019 14:00:00 - - - - - - -
17.02.2019 13:00:00 - - - - - - -
17.02.2019 12:00:00 27,4 24,7 7 4 NE 1007,2 20
17.02.2019 11:00:00 - - - - - - -
17.02.2019 10:00:00 - - - - - - -
17.02.2019 09:00:00 23,6 22,8 4 2 W 1006,1 18
17.02.2019 08:00:00 - - - - - - -
17.02.2019 07:00:00 - - - - - - -
17.02.2019 06:00:00 22,8 22,5 4 2 SE 1004,4 10
17.02.2019 05:00:00 - - - - - - -
17.02.2019 04:00:00 - - - - - - -
17.02.2019 03:00:00 - - - - - - -
17.02.2019 02:00:00 - - - - - - -
17.02.2019 01:00:00 - - - - - - -
17.02.2019 00:00:00 22,4 21,3 11 6 SE 1005,4 10
16.02.2019 23:00:00 - - - - - - -
16.02.2019 22:00:00 - - - - - - -
16.02.2019 21:00:00 22,0 20,5 14 8 SE 1004,6 10
16.02.2019 20:00:00 - - - - - - -
16.02.2019 19:00:00 - - - - - - -
16.02.2019 18:00:00 26,4 21,3 14 8 ESE 1001,8 20
16.02.2019 17:00:00 - - - - - - -
16.02.2019 16:00:00 - - - - - - -
16.02.2019 15:00:00 32,0 23,6 7 4 SE 1004,8 20
16.02.2019 14:00:00 - - - - - - -
16.02.2019 13:00:00 - - - - - - -
16.02.2019 12:00:00 27,8 19,7 4 2 SE 1009,6 20
16.02.2019 11:00:00 - - - - - - -
16.02.2019 10:00:00 - - - - - - -
16.02.2019 09:00:00 22,6 20,0 4 2 SSE 1010,7 18
16.02.2019 08:00:00 - - - - - - -
16.02.2019 07:00:00 - - - - - - -
16.02.2019 06:00:00 22,0 20,3 4 2 SSE 1010,1 10
16.02.2019 05:00:00 - - - - - - -
16.02.2019 04:00:00 - - - - - - -
16.02.2019 03:00:00 22,0 20,3 0 0 N 1010,5 10
16.02.2019 02:00:00 - - - - - - -
16.02.2019 01:00:00 - - - - - - -
16.02.2019 00:00:00 21,2 19,4 7 4 SE 1011,2 10
15.02.2019 23:00:00 - - - - - - -
15.02.2019 22:00:00 - - - - - - -
15.02.2019 21:00:00 21,6 19,0 7 4 SSE 1009,9 10
15.02.2019 20:00:00 21,6 19,0 7 4 SSE 1009,9 10
15.02.2019 19:00:00 - - - - - - -

tt = temperature
td = dewpoint
ff = wind speed
dd = wind direction
ppp = reduced air pressure
vv = visibility

Next stations